Flag for U.S.A. Weather past 2 weeks in Duluth, Minnesota, U.S.A.

Now
61 °F

Sunny.


Feels Like: 61 °F
Forecast: 54 / 79 °F
Wind: 3 mph from Northeast

Location: Sky Harbor Airport

Current Time: Aug 1, 2014 at 8:12:19 PM

Latest Report: Aug 1, 2014 at 7:34 PM


Visibility: 10 mi

Pressure: 30.08 "Hg

Humidity: 83%

Dew point: 55 °F

Location of DuluthLocation

Historic Weather in Duluth — Graph

°F

Duluth temperature yesterday

Maximum temperature yesterday: 82 °F (at 4:33 PM)
Minimum temperature yesterday: 61 °F (at 5:13 AM)
Average temperature yesterday: 71 °F

Past Weeks' High & Low Weather Summary

 TemperatureHumidityPressure
High91 °F (Jul 21, 3:13 PM)100% (Jul 27, 8:33 AM)30.26 "Hg (Jul 27, 8:33 AM)
Low55 °F (Jul 18, 5:53 AM)35% (Jul 26, 3:13 PM)29.68 "Hg (Jul 22, 4:13 AM)
Average66 °F79%29.96 "Hg
* Reported Jul 17 6:13 PM — Aug 1 6:53 PM, Duluth, Weather by CustomWeather, © 2014

Note: Actual official high and low records may vary slightly from our data, if they occured in-between our weather recording intervals... More about our weather records

Advertising

Duluth weather history for previous 24 hours

 ConditionsComfort  
Time TempWeatherWind HumidityBarometerVisibility
6:53 PM
Aug 1
63 °FScattered clouds.7 mph77%30.07 "Hg10 mi
6:34 PM63 °FSunny.7 mph77%30.07 "Hg10 mi
6:13 PM61 °FSunny.8 mph83%30.07 "Hg10 mi
5:53 PM63 °FScattered clouds.12 mph77%30.08 "Hg10 mi
5:34 PM63 °FSunny.13 mph77%30.07 "Hg10 mi
5:13 PM64 °FSunny.10 mph73%30.07 "Hg10 mi
4:53 PM64 °FSunny.9 mph73%30.06 "Hg10 mi
4:34 PM64 °FThunderstorms. Sunny.8 mph73%30.06 "Hg10 mi
4:13 PM64 °FScattered clouds.5 mph78%30.06 "Hg10 mi
3:54 PM63 °FScattered clouds.5 mph77%30.07 "Hg10 mi
3:33 PM64 °FSunny.7 mph78%30.07 "Hg10 mi
3:13 PM64 °FSunny.7 mph73%30.07 "Hg10 mi
2:54 PM64 °FSunny.5 mph73%30.07 "Hg10 mi
2:33 PM64 °FSunny.3 mph73%30.08 "Hg10 mi
2:13 PM64 °FSunny.5 mph73%30.08 "Hg10 mi
1:54 PM64 °FSunny.5 mph73%30.08 "Hg10 mi
1:33 PM64 °FSunny.5 mph73%30.09 "Hg10 mi
1:13 PM63 °FSunny.5 mph77%30.09 "Hg10 mi
12:54 PM63 °FSunny.3 mph73%30.09 "Hg10 mi
12:33 PM63 °FSunny.No wind73%30.09 "Hg10 mi
12:14 PM63 °FSunny.3 mph73%30.08 "Hg10 mi
11:53 AM63 °FSunny.3 mph73%30.08 "Hg10 mi
11:33 AM63 °FSunny.3 mph77%30.08 "Hg10 mi
11:14 AM63 °FSunny.3 mph73%30.08 "Hg10 mi
10:53 AM63 °FSunny.3 mph77%30.09 "Hg10 mi
10:33 AM63 °FSunny.3 mph77%30.08 "Hg10 mi
10:14 AM63 °FSunny.3 mph77%30.08 "Hg10 mi
9:53 AM63 °FSunny.3 mph77%30.08 "Hg10 mi
9:33 AM61 °FSunny.5 mph83%30.08 "Hg10 mi
9:14 AM61 °FSunny.7 mph83%30.08 "Hg10 mi
8:53 AM61 °FSunny.6 mph83%30.08 "Hg10 mi
8:33 AM59 °FSunny.7 mph82%30.07 "Hg10 mi
8:13 AM61 °FSunny.8 mph77%30.07 "Hg10 mi
7:53 AM61 °FSunny.8 mph83%30.07 "Hg10 mi
7:34 AM61 °FSunny.9 mph77%30.07 "Hg10 mi
7:13 AM61 °FSunny.10 mph83%30.07 "Hg10 mi
6:54 AM61 °FSunny.8 mph83%30.06 "Hg10 mi
6:33 AM61 °FPassing clouds.9 mph83%30.05 "Hg10 mi
6:13 AM59 °FPassing clouds.No wind94%30.05 "Hg10 mi
5:54 AM59 °FPassing clouds.No wind94%30.04 "Hg10 mi
5:33 AM61 °FPassing clouds.No wind88%30.03 "Hg10 mi
5:13 AM61 °FClear.No wind88%30.02 "Hg10 mi
4:54 AM61 °FClear.No wind88%30.02 "Hg10 mi
4:33 AM61 °FClear.No wind88%30.01 "Hg10 mi
4:13 AM61 °FClear.No wind88%30.01 "Hg10 mi
3:54 AM61 °FClear.No wind94%30.01 "Hg10 mi
3:33 AM63 °FClear.No wind88%30.00 "Hg10 mi
3:13 AM63 °FClear.No wind94%30.00 "Hg10 mi
2:54 AM63 °FPassing clouds.No wind94%29.99 "Hg10 mi
2:33 AM64 °FOvercast.No wind88%30.00 "Hg10 mi
2:13 AM64 °FPassing clouds.No wind88%30.00 "Hg10 mi
1:54 AM64 °FPassing clouds.No wind88%30.00 "Hg10 mi
1:33 AM64 °FOvercast.No wind88%30.00 "Hg10 mi
1:14 AM64 °FPassing clouds.No wind88%30.00 "Hg10 mi
12:53 AM64 °FPassing clouds.No wind88%30.00 "Hg10 mi
12:34 AM66 °FPassing clouds.No wind88%30.00 "Hg10 mi
12:13 AM66 °FClear.No wind88%29.99 "Hg10 mi
11:53 PM
Jul 31
66 °FClear.No wind83%29.99 "Hg10 mi
11:34 PM66 °FClear.No wind88%29.98 "Hg10 mi
11:13 PM68 °FClear.No wind78%29.98 "Hg10 mi
10:53 PM68 °FClear.No wind78%29.98 "Hg10 mi
10:34 PM68 °FClear.No wind83%29.98 "Hg10 mi
10:13 PM68 °FClear.No wind78%29.97 "Hg10 mi
9:53 PM68 °FClear.3 mph78%29.97 "Hg10 mi
9:34 PM70 °FSunny.5 mph73%29.97 "Hg10 mi
9:13 PM73 °FSunny.3 mph65%29.97 "Hg10 mi
8:53 PM73 °FSunny.No wind65%29.96 "Hg10 mi
8:34 PM73 °FSunny.6 mph57%29.96 "Hg10 mi
8:13 PM75 °FSunny.7 mph54%29.96 "Hg10 mi
Weather by CustomWeather, © 2014

See weather overviewHow to use our weather pages